Regional Weather Roundup
Issued by NWS

Home | Current Version | Previous Version | Graphics & Text | Print | Product List | Glossary On
Versions: 1 2 3 4 5 6 7 8 9 10 11 12 13 14 15 16 17 18 19 20 21 22 23 24 25 26 27 28 29 30 31 32 33 34 35 36 37 38 39 40 41 42 43 44 45 46 47 48 49 50
017
ASUS43 KIND 260709
RWRIN

WEATHER ROUNDUP FOR INDIANA
NATIONAL WEATHER SERVICE INDIANAPOLIS IN
300 AM EDT THU MAY 26 2016

NOTE: "FAIR" INDICATES FEW OR NO CLOUDS BELOW 12,000 FEET WITH NO
SIGNIFICANT WEATHER AND/OR OBSTRUCTIONS TO VISIBILITY.

* - STATION DOES NOT REPORT WEATHER SUCH AS PRECIPITATION OR FOG.

+ - STATION NOT QUALITY CONTROLLED BY THE NATIONAL WEATHER SERVICE.
    USE DATA WITH CAUTION...ESPECIALLY DEWPOINT AND RELATIVE
    HUMIDITY OBSERVATIONS.

INZ001>003-010>013-019-020-260800-
NORTHWEST INDIANA

CITY           SKY/WX    TMP DP  RH WIND       PRES   REMARKS
GARY /AIRPORT/ CLEAR     67  67 100 S3        29.94F
KNOX *+        PTCLDY    70  55  60 S8        29.97S
LA PORTE +     PTCLDY    67  67 100 SE3       29.97F
MICHIGAN CITY+ PTCLDY    63  63 100 CALM      29.97S
MONTICELLO +   MOCLDY    69  62  77 S7        29.98S
RENSSELAER +   CLEAR     70  64  83 S8        29.97S
VALPARAISO     CLEAR     69  62  78 S6        29.96F

$$

LMZ046-743>745-260800-
SOUTHERN LAKE MICHIGAN

STATION/POSITION TIME  TEMP    WIND        PRES    WAVE
                       AIR SEA DIR/SP/G            HT
                 (UTC) (F)     (DEG/KT/KT) (MB)    (FT)
BURNS HARBOR     0600   69     150/  5/  9 1014.6F
MICHIGAN CITY    0600   65      90/  8/ 10   N/A
5NW MICH CITY    0700   62 59  140/  6/  8   N/A     1

$$

INZ004-005-014>016-021>024-260800-
NORTH CENTRAL INDIANA

CITY           SKY/WX    TMP DP  RH WIND       PRES   REMARKS
GOSHEN         CLOUDY    67  62  84 NE5       29.99S
LOGANSPORT +   CLOUDY    68  63  83 S8        30.00S
PERU/GRISSOM   CLOUDY    69  64  84 SW9       29.99S
ROCHESTER +    CLOUDY    72  64  78 SW5       30.00R
SOUTH BEND     CLOUDY    66  63  90 E6        29.98F
WARSAW +       CLOUDY    70  63  78 W5        30.00R

$$

INZ006>009-017-018-025>027-260800-
NORTHEAST INDIANA

CITY           SKY/WX    TMP DP  RH WIND       PRES   REMARKS
ANGOLA *+      PTCLDY    68  64  88 N6        30.01R
AUBURN +       MOCLDY    72  61  68 SW5       30.01R
FORT WAYNE     CLOUDY    70  62  76 SW7       30.00F
HUNTINGTON +   MOCLDY   N/A N/A N/A SW6       30.00S

$$

INZ028-029-035-036-043>045-051>053-260800-
WEST CENTRAL INDIANA

CITY           SKY/WX    TMP DP  RH WIND       PRES   REMARKS
CRAWFORDSVL +  CLOUDY    67  64  92 S6        30.01R
GREENCASTLE +  CLOUDY    68  64  88 CALM      30.03R
LAFAYETTE      CLOUDY    70  64  81 SW8       29.98S
TERRE HAUTE    CLOUDY    69  64  84 S7        30.01S

$$

INZ030>032-037>040-046>048-054>057-064-065-260800-
CENTRAL INDIANA

CITY           SKY/WX    TMP DP  RH WIND       PRES   REMARKS
CP ATTERBURY + CLOUDY    68  61  77 S7        30.05R
FISHERS *+     MOCLDY    68  64  88 SW8       30.03S
FRANKFORT +      N/A     69  57  66 CALM      30.02F
GREENWOOD *+   CLOUDY    68  63  83 S6        30.04
INDIANAPOLIS   CLOUDY    69  63  81 S8        30.01S
-EAGLE CREEK   CLOUDY    70  62  76 S7        30.02R
KOKOMO *+      CLOUDY    70  61  73 SW9       30.01R
MARION +       CLOUDY    69  61  76 SW7       30.02S
SHELBYVILLE    CLOUDY    70  62  76 S8        30.03S
ZIONSVILLE +   CLOUDY    68  62  82 S7        30.03S

$$

INZ033-034-041-042-049-050-058-059-260800-
EAST CENTRAL INDIANA

CITY           SKY/WX    TMP DP  RH WIND       PRES   REMARKS
MUNCIE         CLOUDY    71  62  73 SW8       30.02S

$$

INZ060-061-067>069-081>083-085>088-260800-
SOUTHWEST INDIANA

CITY           SKY/WX    TMP DP  RH WIND       PRES   REMARKS
EVANSVILLE     CLOUDY    67  63  87 SW7       30.04S
HUNTINGBURG *+ CLOUDY    66  61  82 S7        30.05S
WASHINGTON +   MOCLDY    67  67 100 S7        30.03R

$$

INZ062-063-066-070>080-084-089>092-260800-
SOUTH CENTRAL AND SOUTHEAST INDIANA

CITY           SKY/WX    TMP DP  RH WIND       PRES   REMARKS
BEDFORD +      MOCLDY    64  64 100 S3        30.04S
BLOOMINGTON    CLOUDY    68  62  81 SW7       30.03S
MADISON *+     CLOUDY    64  61  88 SE3       30.08S
NORTH VERNON + CLOUDY    66  66 100 CALM      30.06S
SEYMOUR +      CLOUDY    66  63  88 CALM      30.04F

$$





USA.gov is the U.S. government's official web portal to all federal, state and local government web resources and services.